Weather Roundup
Issued by NWS Corpus Christi, TX

Current Version | Previous Version | Text Only | Print | Product List | Glossary On
Versions: 1 2 3 4 5 6 7 8 9 10 11 12 13 14 15 16 17 18 19 20 21 22 23 24 25 26 27 28 29 30 31 32 33 34 35 36 37 38 39 40 41 42 43 44 45 46 47 48 49 50
000
ASUS44 KCRP 190410
HRRCRP

SOUTH TEXAS REGIONAL WEATHER ROUNDUP
NATIONAL WEATHER SERVICE CORPUS CHRISTI TX
1000 PM CST THU DEC 18 2014


TXZ229>244-190500-
...CORPUS CHRISTI AREA OBSERVATIONS...

CITY           SKY/WX    TMP DP  RH WIND       PRES   REMARKS
CORPUS CHRISTI LGT RAIN  69  67  93 SE7       29.99F
NAS CORPUS CHR CLOUDY    70  68  93 S12       30.00R
ROCKPORT       CLOUDY    69  66  90 E5        30.00S
KINGSVILLE NAS CLOUDY    70  69  97 S9        29.99F
ALICE          LGT RAIN  68  66  93 NE3       29.98F FOG
FALFURRIAS     CLOUDY    69  67  94 S3        29.99S
$$

...VICTORIA AREA OBSERVATIONS...

CITY           SKY/WX    TMP DP  RH WIND       PRES   REMARKS
VICTORIA       CLOUDY    64  62  93 CALM      30.03R FOG
BEEVILLE       CLOUDY    64  64 100 NE6       30.01S
PLEASANTON     CLOUDY    58  57  96 NE6       30.03S FOG
SAN ANTONIO    LGT RAIN  58  55  90 NE8       30.05S FOG
$$

...LAREDO AREA OBSERVATIONS...

CITY           SKY/WX    TMP DP  RH WIND       PRES   REMARKS
LAREDO         LGT RAIN  63  63 100 NW3       30.03S FOG
COTULLA        CLOUDY    62  60  93 E9        30.01S FOG
DEL RIO        MOCLDY    60  54  80 CALM      30.02S
MCALLEN        LGT RAIN  63  62  97 W3        30.01S FOG
HEBBRONVILLE   CLOUDY    64  63  97 CALM      30.00S VSB 1/2
$$

...OTHER TEXAS OBSERVATIONS...

CITY           SKY/WX    TMP DP  RH WIND       PRES   REMARKS
BROWNSVILLE    CLOUDY    72  67  84 SE6       30.01R
HOUSTON        CLOUDY    61  58  90 E12       30.06F
COL. STATION   CLOUDY    55  54  96 N12       30.09R FOG
AUSTIN         CLOUDY    53  52  96 N13       30.08S FOG
WACO           CLOUDY    48  46  93 N9        30.15R
FORT WORTH     CLOUDY    47  43  86 NE3       30.18R
WICHITA FALLS  CLOUDY    43  41  93 NE10      30.18R
LUBBOCK        CLOUDY    39  36  89 E9        30.12S
EL PASO        MOCLDY    47  40  76 W14       30.13S
$$

...MARINE OBSERVATIONS...

STATION/POSITION TIME  SKY/WX   TEMP    WIND        PRES    VSBY  WAVE   SWELL
                                AIR SEA DIR/SP/G                  HT/PER HT/PER
                 (UTC)          (F)     (DEG/KT/KT) (MB)    (MI)  (FT/S) (FT/S)
PORT ARANSAS     0400            68 66  150/ 10/ 11 1016.2R
BUOY 90 E PORT A 0400            72 72  160/ 12/ 14 1016.8F         4/ 6   2/ 6
BUOY 45 SE BAFFI 0400            72 72  160/ 10/ 12 1015.7F         4/ 6   3/ 6
BUOY 200 E PT IS 0400            74 73  150/ 12/ 14 1017.5S         3/ 6   2/ 8
BUOY 15 E GALVES 0400            62 65   70/ 16/ 19 1017.8R         3/ 5
$$



USA.gov is the U.S. government's official web portal to all federal, state and local government web resources and services.